Time,TemperatureF,DewpointF,PressureIn,WindDirection,WindDirectionDegrees,WindSpeedMPH,WindSpeedGustMPH,Humidity,HourlyPrecipIn,Conditions,Clouds,dailyrainin,SoftwareType,DateUTC
2013-12-02 00:01:00,39.3,38.3,30.01,SSW,202,1.0,2.0,96,0.00,,,0.00,Wunderground v.1.15,2013-12-02 05:01:00,
2013-12-02 00:02:00,39.3,38.3,30.01,SSW,202,1.0,2.0,96,0.00,,,0.00,Wunderground v.1.15,2013-12-02 05:02:00,
2013-12-02 00:05:00,39.3,38.3,30.01,SSW,202,2.0,2.0,96,0.00,,,0.00,Wunderground v.1.15,2013-12-02 05:05:00,
2013-12-02 00:08:00,39.1,38.1,30.00,SSW,202,1.0,2.0,96,0.00,,,0.00,Wunderground v.1.15,2013-12-02 05:08:00,
2013-12-02 00:10:00,38.9,37.9,30.00,SSW,202,1.0,1.0,96,0.00,,,0.00,Wunderground v.1.15,2013-12-02 05:10:00,
2013-12-02 00:16:00,38.1,37.1,30.00,SSW,202,1.0,2.0,96,0.00,,,0.00,Wunderground v.1.15,2013-12-02 05:16:00,
2013-12-02 00:21:00,38.0,37.0,30.00,SSW,202,1.0,1.0,96,0.00,,,0.00,Wunderground v.1.15,2013-12-02 05:21:00,
2013-12-02 00:22:00,38.0,37.0,30.00,SSW,202,2.0,2.0,96,0.00,,,0.00,Wunderground v.1.15,2013-12-02 05:22:00,
2013-12-02 00:28:00,38.4,37.6,30.00,SSW,202,1.0,2.0,97,0.00,,,0.00,Wunderground v.1.15,2013-12-02 05:28:00,
2013-12-02 00:33:00,38.6,37.8,30.00,SSW,202,1.0,1.0,97,0.00,,,0.00,Wunderground v.1.15,2013-12-02 05:33:00,
2013-12-02 00:39:00,38.7,37.9,30.00,SSW,202,1.0,1.0,97,0.00,,,0.00,Wunderground v.1.15,2013-12-02 05:39:00,
2013-12-02 00:44:00,38.9,38.1,30.00,SSW,202,1.0,2.0,97,0.00,,,0.00,Wunderground v.1.15,2013-12-02 05:44:00,
2013-12-02 00:49:00,39.1,38.3,30.00,SSW,202,1.0,2.0,97,0.00,,,0.00,Wunderground v.1.15,2013-12-02 05:49:00,
2013-12-02 00:54:00,39.2,38.7,30.00,SSW,202,1.0,2.0,98,0.00,,,0.00,Wunderground v.1.15,2013-12-02 05:54:00,
2013-12-02 00:59:00,39.2,38.7,29.99,SSW,202,1.0,2.0,98,0.00,,,0.00,Wunderground v.1.15,2013-12-02 05:59:00,
2013-12-02 01:05:00,39.2,38.4,29.99,SSW,202,0.0,1.0,97,0.00,,,0.00,Wunderground v.1.15,2013-12-02 06:05:00,
2013-12-02 01:10:00,39.0,38.5,29.99,SSW,202,1.0,1.0,98,0.00,,,0.00,Wunderground v.1.15,2013-12-02 06:10:00,
2013-12-02 01:16:00,38.8,38.3,29.99,SSW,202,1.0,1.0,98,0.00,,,0.00,Wunderground v.1.15,2013-12-02 06:16:00,
2013-12-02 01:22:00,38.8,38.3,29.99,SSW,202,0.0,1.0,98,0.00,,,0.00,Wunderground v.1.15,2013-12-02 06:22:00,
2013-12-02 01:28:00,38.7,38.2,29.99,SSW,202,0.0,1.0,98,0.00,,,0.00,Wunderground v.1.15,2013-12-02 06:28:00,
2013-12-02 01:33:00,38.6,38.1,29.99,SSW,202,0.0,0.0,98,0.00,,,0.00,Wunderground v.1.15,2013-12-02 06:33:00,
2013-12-02 01:38:00,38.7,38.2,29.99,SSW,202,0.0,0.0,98,0.00,,,0.00,Wunderground v.1.15,2013-12-02 06:38:00,
2013-12-02 01:43:00,38.9,38.4,29.99,SSW,202,0.0,0.0,98,0.00,,,0.00,Wunderground v.1.15,2013-12-02 06:43:00,
2013-12-02 01:48:00,39.1,38.6,29.99,SSW,202,0.0,0.0,98,0.00,,,0.00,Wunderground v.1.15,2013-12-02 06:48:00,
2013-12-02 01:54:00,39.1,38.6,29.99,SSW,202,0.0,0.0,98,0.00,,,0.00,Wunderground v.1.15,2013-12-02 06:54:00,
2013-12-02 01:59:00,39.3,38.8,29.99,SSW,202,0.0,0.0,98,0.00,,,0.00,Wunderground v.1.15,2013-12-02 06:59:00,
2013-12-02 02:04:00,39.6,39.1,29.99,SSW,202,0.0,1.0,98,0.00,,,0.00,Wunderground v.1.15,2013-12-02 07:04:00,
2013-12-02 02:09:00,39.8,39.3,29.99,SSW,202,0.0,1.0,98,0.00,,,0.00,Wunderground v.1.15,2013-12-02 07:09:00,
2013-12-02 02:14:00,39.9,39.4,29.98,SSW,202,0.0,1.0,98,0.00,,,0.00,Wunderground v.1.15,2013-12-02 07:14:00,
2013-12-02 02:19:00,40.2,39.7,29.98,SSW,202,0.0,1.0,98,0.00,,,0.00,Wunderground v.1.15,2013-12-02 07:19:00,
2013-12-02 02:24:00,40.3,39.8,29.98,SSW,202,1.0,1.0,98,0.00,,,0.00,Wunderground v.1.15,2013-12-02 07:24:00,
2013-12-02 02:29:00,40.3,39.8,29.98,SSW,202,1.0,2.0,98,0.00,,,0.00,Wunderground v.1.15,2013-12-02 07:29:00,
2013-12-02 02:34:00,40.1,39.6,29.98,SSW,202,2.0,2.0,98,0.00,,,0.00,Wunderground v.1.15,2013-12-02 07:34:00,
2013-12-02 02:39:00,40.1,39.6,29.98,SSW,202,0.0,2.0,98,0.00,,,0.00,Wunderground v.1.15,2013-12-02 07:39:00,
2013-12-02 02:44:00,40.0,39.5,29.98,SSW,202,0.0,1.0,98,0.00,,,0.00,Wunderground v.1.15,2013-12-02 07:44:00,
2013-12-02 02:49:00,40.0,39.5,29.98,SSW,202,0.0,2.0,98,0.00,,,0.00,Wunderground v.1.15,2013-12-02 07:49:00,
2013-12-02 02:54:00,40.0,39.5,29.98,SSW,202,0.0,0.0,98,0.00,,,0.00,Wunderground v.1.15,2013-12-02 07:54:00,
2013-12-02 02:59:00,39.9,39.4,29.97,SSW,202,0.0,2.0,98,0.00,,,0.00,Wunderground v.1.15,2013-12-02 07:59:00,
2013-12-02 03:04:00,39.8,39.3,29.97,SSW,202,0.0,1.0,98,0.00,,,0.00,Wunderground v.1.15,2013-12-02 08:04:00,
2013-12-02 03:09:00,39.8,39.3,29.97,SSW,202,0.0,1.0,98,0.00,,,0.00,Wunderground v.1.15,2013-12-02 08:09:00,
2013-12-02 03:14:00,39.8,39.5,29.97,SSW,202,0.0,1.0,99,0.00,,,0.00,Wunderground v.1.15,2013-12-02 08:14:00,
2013-12-02 03:19:00,39.8,39.5,29.96,SSW,202,0.0,1.0,99,0.00,,,0.00,Wunderground v.1.15,2013-12-02 08:19:00,
2013-12-02 03:24:00,39.8,39.5,29.96,SSW,202,0.0,1.0,99,0.00,,,0.00,Wunderground v.1.15,2013-12-02 08:24:00,
2013-12-02 03:29:00,39.8,39.5,29.96,SSW,202,0.0,1.0,99,0.00,,,0.00,Wunderground v.1.15,2013-12-02 08:29:00,
2013-12-02 03:34:00,39.8,39.5,29.96,SSW,202,0.0,0.0,99,0.00,,,0.00,Wunderground v.1.15,2013-12-02 08:34:00,
2013-12-02 03:39:00,39.8,39.5,29.96,SSW,202,1.0,1.0,99,0.00,,,0.00,Wunderground v.1.15,2013-12-02 08:39:00,
2013-12-02 03:44:00,39.8,39.5,29.96,SSW,202,0.0,1.0,99,0.00,,,0.00,Wunderground v.1.15,2013-12-02 08:44:00,
2013-12-02 03:49:00,39.8,39.5,29.96,SSW,202,0.0,1.0,99,0.00,,,0.00,Wunderground v.1.15,2013-12-02 08:49:00,
2013-12-02 03:54:00,39.8,39.3,29.95,SSW,202,0.0,0.0,98,0.00,,,0.00,Wunderground v.1.15,2013-12-02 08:54:00,
2013-12-02 03:59:00,39.8,39.3,29.95,SSW,202,0.0,0.0,98,0.00,,,0.00,Wunderground v.1.15,2013-12-02 08:59:00,
2013-12-02 04:04:00,39.8,39.3,29.95,SSW,202,0.0,2.0,98,0.00,,,0.00,Wunderground v.1.15,2013-12-02 09:04:00,
2013-12-02 04:09:00,39.8,39.5,29.95,SSW,202,0.0,2.0,99,0.00,,,0.00,Wunderground v.1.15,2013-12-02 09:09:00,
2013-12-02 04:14:00,39.8,39.3,29.95,SSW,202,0.0,1.0,98,0.00,,,0.00,Wunderground v.1.15,2013-12-02 09:14:00,
2013-12-02 04:19:00,39.7,39.2,29.94,SSW,202,1.0,2.0,98,0.00,,,0.00,Wunderground v.1.15,2013-12-02 09:19:00,
2013-12-02 04:24:00,39.7,39.2,29.94,SSW,202,0.0,1.0,98,0.00,,,0.00,Wunderground v.1.15,2013-12-02 09:24:00,
2013-12-02 04:29:00,39.6,39.1,29.94,SSW,202,0.0,1.0,98,0.00,,,0.00,Wunderground v.1.15,2013-12-02 09:29:00,
2013-12-02 04:34:00,39.6,39.1,29.94,SSW,202,0.0,2.0,98,0.00,,,0.00,Wunderground v.1.15,2013-12-02 09:34:00,
2013-12-02 04:39:00,39.5,39.0,29.94,SSW,202,0.0,2.0,98,0.00,,,0.00,Wunderground v.1.15,2013-12-02 09:39:00,
2013-12-02 04:44:00,39.5,39.0,29.94,SSW,202,0.0,1.0,98,0.00,,,0.00,Wunderground v.1.15,2013-12-02 09:44:00,
2013-12-02 04:50:00,39.5,39.2,29.94,SSW,202,0.0,0.0,99,0.00,,,0.00,Wunderground v.1.15,2013-12-02 09:50:00,
2013-12-02 04:55:00,39.4,39.1,29.94,SSW,202,0.0,2.0,99,0.00,,,0.00,Wunderground v.1.15,2013-12-02 09:55:00,
2013-12-02 05:00:00,39.4,39.1,29.93,SSW,202,0.0,0.0,99,0.00,,,0.00,Wunderground v.1.15,2013-12-02 10:00:00,
2013-12-02 05:05:00,39.3,39.0,29.94,SSW,202,0.0,2.0,99,0.00,,,0.00,Wunderground v.1.15,2013-12-02 10:05:00,
2013-12-02 05:10:00,39.3,39.0,29.94,SSW,202,0.0,0.0,99,0.00,,,0.00,Wunderground v.1.15,2013-12-02 10:10:00,
2013-12-02 05:15:00,39.3,39.0,29.94,SSW,202,0.0,0.0,99,0.00,,,0.00,Wunderground v.1.15,2013-12-02 10:15:00,
2013-12-02 05:20:00,39.3,39.0,29.94,SSW,202,0.0,0.0,99,0.00,,,0.00,Wunderground v.1.15,2013-12-02 10:20:00,
2013-12-02 05:25:00,39.3,39.0,29.94,SSW,202,0.0,1.0,99,0.00,,,0.00,Wunderground v.1.15,2013-12-02 10:25:00,
2013-12-02 05:30:00,39.3,39.0,29.94,SSW,202,0.0,0.0,99,0.00,,,0.00,Wunderground v.1.15,2013-12-02 10:30:00,
2013-12-02 05:35:00,39.2,38.9,29.94,SSW,202,0.0,0.0,99,0.00,,,0.00,Wunderground v.1.15,2013-12-02 10:35:00,
2013-12-02 05:40:00,39.2,38.9,29.94,SSW,202,0.0,1.0,99,0.00,,,0.00,Wunderground v.1.15,2013-12-02 10:40:00,
2013-12-02 05:45:00,39.2,38.7,29.94,SSW,202,0.0,1.0,98,0.00,,,0.00,Wunderground v.1.15,2013-12-02 10:45:00,
2013-12-02 05:50:00,39.2,38.7,29.94,SSW,202,0.0,0.0,98,0.00,,,0.00,Wunderground v.1.15,2013-12-02 10:50:00,
2013-12-02 05:55:00,39.1,38.6,29.94,SSW,202,0.0,0.0,98,0.00,,,0.00,Wunderground v.1.15,2013-12-02 10:55:00,
2013-12-02 06:00:00,39.1,38.6,29.94,SSW,202,0.0,0.0,98,0.00,,,0.00,Wunderground v.1.15,2013-12-02 11:00:00,
2013-12-02 06:05:00,39.1,38.6,29.94,SSW,202,0.0,0.0,98,0.00,,,0.00,Wunderground v.1.15,2013-12-02 11:05:00,
2013-12-02 06:10:00,39.1,38.6,29.94,SSW,202,0.0,0.0,98,0.00,,,0.00,Wunderground v.1.15,2013-12-02 11:10:00,
2013-12-02 06:15:00,39.1,38.6,29.94,SSW,202,0.0,1.0,98,0.00,,,0.00,Wunderground v.1.15,2013-12-02 11:15:00,
2013-12-02 06:20:00,39.1,38.6,29.94,SSW,202,0.0,0.0,98,0.00,,,0.00,Wunderground v.1.15,2013-12-02 11:20:00,
2013-12-02 06:25:00,39.1,38.6,29.95,SSW,202,0.0,1.0,98,0.00,,,0.00,Wunderground v.1.15,2013-12-02 11:25:00,
2013-12-02 06:30:00,39.1,38.6,29.94,SSW,202,0.0,0.0,98,0.00,,,0.00,Wunderground v.1.15,2013-12-02 11:30:00,
2013-12-02 06:35:00,39.1,38.6,29.95,SSW,202,0.0,0.0,98,0.00,,,0.00,Wunderground v.1.15,2013-12-02 11:35:00,
2013-12-02 06:40:00,39.1,38.6,29.95,SSW,202,0.0,0.0,98,0.00,,,0.00,Wunderground v.1.15,2013-12-02 11:40:00,
2013-12-02 06:45:00,39.0,38.5,29.95,SSW,202,0.0,0.0,98,0.00,,,0.00,Wunderground v.1.15,2013-12-02 11:45:00,
2013-12-02 06:50:00,39.0,38.5,29.95,SSW,202,0.0,0.0,98,0.00,,,0.00,Wunderground v.1.15,2013-12-02 11:50:00,
2013-12-02 06:55:00,39.0,38.5,29.95,SSW,202,0.0,0.0,98,0.00,,,0.00,Wunderground v.1.15,2013-12-02 11:55:00,
2013-12-02 07:00:00,39.0,38.5,29.95,SSW,202,0.0,0.0,98,0.00,,,0.00,Wunderground v.1.15,2013-12-02 12:00:00,
2013-12-02 07:05:00,39.0,38.7,29.95,SSW,202,0.0,1.0,99,0.00,,,0.00,Wunderground v.1.15,2013-12-02 12:05:00,
2013-12-02 07:10:00,39.0,38.7,29.95,SSW,202,0.0,0.0,99,0.00,,,0.00,Wunderground v.1.15,2013-12-02 12:10:00,
2013-12-02 07:15:00,39.0,38.7,29.95,SSW,202,0.0,0.0,99,0.00,,,0.00,Wunderground v.1.15,2013-12-02 12:15:00,
2013-12-02 07:20:00,39.0,38.7,29.95,SSW,202,0.0,0.0,99,0.00,,,0.00,Wunderground v.1.15,2013-12-02 12:20:00,
2013-12-02 07:25:00,39.0,38.7,29.95,SSW,202,2.0,2.0,99,0.00,,,0.00,Wunderground v.1.15,2013-12-02 12:25:00,
2013-12-02 07:30:00,39.1,38.8,29.95,SSW,202,0.0,1.0,99,0.00,,,0.00,Wunderground v.1.15,2013-12-02 12:30:00,
2013-12-02 07:36:00,39.1,38.8,29.95,SSW,202,1.0,2.0,99,0.00,,,0.00,Wunderground v.1.15,2013-12-02 12:36:00,
2013-12-02 07:41:00,39.1,38.8,29.95,SSW,202,0.0,1.0,99,0.00,,,0.00,Wunderground v.1.15,2013-12-02 12:41:00,
2013-12-02 07:46:00,39.1,38.8,29.95,SSW,202,1.0,2.0,99,0.00,,,0.00,Wunderground v.1.15,2013-12-02 12:46:00,
2013-12-02 07:51:00,39.2,38.9,29.95,SSW,202,0.0,1.0,99,0.00,,,0.00,Wunderground v.1.15,2013-12-02 12:51:00,
2013-12-02 07:56:00,39.2,38.9,29.95,SSW,202,1.0,2.0,99,0.00,,,0.00,Wunderground v.1.15,2013-12-02 12:56:00,
2013-12-02 08:01:00,39.2,38.9,29.95,SSW,202,0.0,1.0,99,0.00,,,0.00,Wunderground v.1.15,2013-12-02 13:01:00,
2013-12-02 08:06:00,39.3,39.0,29.95,SSW,202,0.0,2.0,99,0.00,,,0.00,Wunderground v.1.15,2013-12-02 13:06:00,
2013-12-02 08:11:00,39.3,39.0,29.95,SSW,202,0.0,2.0,99,0.00,,,0.00,Wunderground v.1.15,2013-12-02 13:11:00,
2013-12-02 08:16:00,39.4,39.1,29.95,SSW,202,1.0,2.0,99,0.00,,,0.00,Wunderground v.1.15,2013-12-02 13:16:00,
2013-12-02 08:21:00,39.5,39.2,29.95,SSW,202,0.0,2.0,99,0.00,,,0.00,Wunderground v.1.15,2013-12-02 13:21:00,
2013-12-02 08:26:00,39.5,39.2,29.95,SSW,202,1.0,2.0,99,0.00,,,0.00,Wunderground v.1.15,2013-12-02 13:26:00,
2013-12-02 08:31:00,39.6,39.3,29.95,SSW,202,0.0,1.0,99,0.00,,,0.00,Wunderground v.1.15,2013-12-02 13:31:00,
2013-12-02 08:36:00,39.7,39.4,29.95,SSW,202,1.0,2.0,99,0.00,,,0.00,Wunderground v.1.15,2013-12-02 13:36:00,
2013-12-02 08:41:00,39.7,39.2,29.95,SSW,202,0.0,3.0,98,0.00,,,0.00,Wunderground v.1.15,2013-12-02 13:41:00,
2013-12-02 08:46:00,39.7,39.2,29.95,SSW,202,0.0,3.0,98,0.00,,,0.00,Wunderground v.1.15,2013-12-02 13:46:00,
2013-12-02 08:52:00,39.8,39.5,29.95,SSW,202,2.0,4.0,99,0.00,,,0.00,Wunderground v.1.15,2013-12-02 13:52:00,
2013-12-02 08:57:00,39.8,39.5,29.95,SSW,202,0.0,4.0,99,0.00,,,0.00,Wunderground v.1.15,2013-12-02 13:57:00,
2013-12-02 09:02:00,40.0,39.5,29.95,SSW,202,2.0,3.0,98,0.00,,,0.00,Wunderground v.1.15,2013-12-02 14:02:00,
2013-12-02 09:07:00,40.4,40.1,29.95,SSW,202,0.0,3.0,99,0.00,,,0.00,Wunderground v.1.15,2013-12-02 14:07:00,
2013-12-02 09:12:00,41.0,40.7,29.95,SSW,202,1.0,2.0,99,0.00,,,0.00,Wunderground v.1.15,2013-12-02 14:12:00,
2013-12-02 09:17:00,41.5,41.2,29.95,SSW,202,2.0,3.0,99,0.00,,,0.00,Wunderground v.1.15,2013-12-02 14:17:00,
2013-12-02 09:23:00,41.9,41.4,29.95,SSW,202,4.0,5.0,98,0.00,,,0.00,Wunderground v.1.15,2013-12-02 14:23:00,
2013-12-02 09:28:00,42.1,41.6,29.95,SSW,200,1.0,5.0,98,0.00,,,0.00,Wunderground v.1.15,2013-12-02 14:28:00,
2013-12-02 09:33:00,42.2,41.4,29.95,SSW,200,2.0,3.0,97,0.00,,,0.00,Wunderground v.1.15,2013-12-02 14:33:00,
2013-12-02 09:38:00,42.4,41.3,29.95,SSW,200,3.0,3.0,96,0.00,,,0.00,Wunderground v.1.15,2013-12-02 14:38:00,
2013-12-02 09:43:00,42.5,41.2,29.95,SSW,200,2.0,5.0,95,0.00,,,0.00,Wunderground v.1.15,2013-12-02 14:43:00,
2013-12-02 09:48:00,42.7,41.1,29.95,SSW,200,3.0,5.0,94,0.00,,,0.00,Wunderground v.1.15,2013-12-02 14:48:00,
2013-12-02 09:53:00,42.8,40.9,29.95,SSW,200,2.0,4.0,93,0.00,,,0.00,Wunderground v.1.15,2013-12-02 14:53:00,
2013-12-02 09:58:00,42.9,40.7,29.95,SSW,200,0.0,4.0,92,0.00,,,0.00,Wunderground v.1.15,2013-12-02 14:58:00,
2013-12-02 10:03:00,43.1,40.9,29.95,SSW,200,2.0,4.0,92,0.00,,,0.00,Wunderground v.1.15,2013-12-02 15:03:00,
2013-12-02 10:09:00,43.3,40.8,29.95,SSW,200,1.0,4.0,91,0.00,,,0.00,Wunderground v.1.15,2013-12-02 15:09:00,
2013-12-02 10:14:00,43.5,40.8,29.95,SSW,200,1.0,2.0,90,0.00,,,0.00,Wunderground v.1.15,2013-12-02 15:14:00,
2013-12-02 10:19:00,43.8,40.8,29.95,SSW,200,1.0,3.0,89,0.00,,,0.00,Wunderground v.1.15,2013-12-02 15:19:00,
2013-12-02 10:24:00,44.0,40.4,29.95,SSW,200,2.0,4.0,87,0.00,,,0.00,Wunderground v.1.15,2013-12-02 15:24:00,
2013-12-02 10:29:00,44.1,40.2,29.94,SSW,200,1.0,4.0,86,0.00,,,0.00,Wunderground v.1.15,2013-12-02 15:29:00,
2013-12-02 10:34:00,44.4,40.2,29.94,SSW,200,1.0,3.0,85,0.00,,,0.00,Wunderground v.1.15,2013-12-02 15:34:00,
2013-12-02 10:39:00,44.7,40.5,29.94,SSW,200,3.0,3.0,85,0.00,,,0.00,Wunderground v.1.15,2013-12-02 15:39:00,
2013-12-02 10:44:00,45.0,40.8,29.94,SSW,200,1.0,4.0,85,0.00,,,0.00,Wunderground v.1.15,2013-12-02 15:44:00,
2013-12-02 10:49:00,45.0,40.5,29.94,SSW,200,1.0,4.0,84,0.00,,,0.00,Wunderground v.1.15,2013-12-02 15:49:00,
2013-12-02 10:54:00,45.2,40.7,29.94,SSW,200,0.0,2.0,84,0.00,,,0.00,Wunderground v.1.15,2013-12-02 15:54:00,
2013-12-02 10:59:00,45.4,40.5,29.93,SSW,200,1.0,4.0,83,0.00,,,0.00,Wunderground v.1.15,2013-12-02 15:59:00,
2013-12-02 11:04:00,45.5,40.6,29.93,SSW,200,3.0,3.0,83,0.00,,,0.00,Wunderground v.1.15,2013-12-02 16:04:00,
2013-12-02 11:09:00,45.6,40.4,29.93,SSW,200,2.0,3.0,82,0.00,,,0.00,Wunderground v.1.15,2013-12-02 16:09:00,
2013-12-02 11:14:00,45.8,40.9,29.92,SSW,200,1.0,2.0,83,0.00,,,0.00,Wunderground v.1.15,2013-12-02 16:14:00,
2013-12-02 11:19:00,45.7,40.5,29.92,SSW,200,1.0,3.0,82,0.00,,,0.00,Wunderground v.1.15,2013-12-02 16:19:00,
2013-12-02 11:24:00,45.6,40.7,29.92,SSW,200,0.0,1.0,83,0.00,,,0.00,Wunderground v.1.15,2013-12-02 16:24:00,
2013-12-02 11:29:00,45.5,40.6,29.92,SSW,200,3.0,3.0,83,0.00,,,0.00,Wunderground v.1.15,2013-12-02 16:29:00,
2013-12-02 11:34:00,45.2,40.3,29.91,SSW,200,3.0,3.0,83,0.00,,,0.00,Wunderground v.1.15,2013-12-02 16:34:00,
2013-12-02 11:39:00,45.0,40.5,29.91,SSW,200,3.0,4.0,84,0.00,,,0.00,Wunderground v.1.15,2013-12-02 16:39:00,
2013-12-02 11:44:00,44.7,40.2,29.90,SSW,211,4.0,6.0,84,0.00,,,0.00,Wunderground v.1.15,2013-12-02 16:44:00,
2013-12-02 11:49:00,44.4,39.9,29.90,SW,223,5.0,6.0,84,0.00,,,0.00,Wunderground v.1.15,2013-12-02 16:49:00,
2013-12-02 11:54:00,44.2,40.0,29.90,West,259,3.0,6.0,85,0.00,,,0.00,Wunderground v.1.15,2013-12-02 16:54:00,
2013-12-02 11:59:00,44.2,40.0,29.89,West,261,5.0,6.0,85,0.00,,,0.00,Wunderground v.1.15,2013-12-02 16:59:00,
2013-12-02 12:04:00,44.1,39.9,29.89,West,267,4.0,6.0,85,0.00,,,0.00,Wunderground v.1.15,2013-12-02 17:04:00,
2013-12-02 12:09:00,44.0,40.1,29.89,West,267,3.0,6.0,86,0.00,,,0.00,Wunderground v.1.15,2013-12-02 17:09:00,
2013-12-02 12:15:00,44.1,40.5,29.89,West,267,1.0,4.0,87,0.00,,,0.00,Wunderground v.1.15,2013-12-02 17:15:00,
2013-12-02 12:20:00,44.1,40.5,29.89,West,267,4.0,4.0,87,0.00,,,0.00,Wunderground v.1.15,2013-12-02 17:20:00,
2013-12-02 12:25:00,44.0,40.1,29.88,West,267,3.0,5.0,86,0.00,,,0.00,Wunderground v.1.15,2013-12-02 17:25:00,
2013-12-02 12:30:00,44.0,40.4,29.88,West,267,2.0,4.0,87,0.00,,,0.00,Wunderground v.1.15,2013-12-02 17:30:00,
2013-12-02 12:35:00,44.0,40.4,29.89,West,267,3.0,4.0,87,0.00,,,0.00,Wunderground v.1.15,2013-12-02 17:35:00,
2013-12-02 12:40:00,44.0,40.4,29.89,West,267,1.0,3.0,87,0.00,,,0.00,Wunderground v.1.15,2013-12-02 17:40:00,
2013-12-02 12:45:00,44.1,40.5,29.89,West,267,3.0,4.0,87,0.00,,,0.00,Wunderground v.1.15,2013-12-02 17:45:00,
2013-12-02 12:50:00,44.1,40.5,29.89,West,267,2.0,2.0,87,0.00,,,0.00,Wunderground v.1.15,2013-12-02 17:50:00,
2013-12-02 12:55:00,44.2,40.6,29.88,West,267,1.0,2.0,87,0.00,,,0.00,Wunderground v.1.15,2013-12-02 17:55:00,
2013-12-02 13:00:00,44.2,40.6,29.88,West,267,3.0,3.0,87,0.00,,,0.00,Wunderground v.1.15,2013-12-02 18:00:00,
2013-12-02 13:05:00,44.2,40.9,29.88,West,267,3.0,4.0,88,0.00,,,0.00,Wunderground v.1.15,2013-12-02 18:05:00,
2013-12-02 13:10:00,44.3,41.0,29.88,West,267,2.0,3.0,88,0.00,,,0.00,Wunderground v.1.15,2013-12-02 18:10:00,
2013-12-02 13:15:00,44.3,41.0,29.88,West,267,2.0,3.0,88,0.00,,,0.00,Wunderground v.1.15,2013-12-02 18:15:00,
2013-12-02 13:20:00,44.3,41.0,29.88,West,267,4.0,4.0,88,0.00,,,0.00,Wunderground v.1.15,2013-12-02 18:20:00,
2013-12-02 13:25:00,44.3,41.0,29.88,West,267,1.0,4.0,88,0.00,,,0.00,Wunderground v.1.15,2013-12-02 18:25:00,
2013-12-02 13:30:00,44.2,40.9,29.88,West,267,1.0,2.0,88,0.00,,,0.00,Wunderground v.1.15,2013-12-02 18:30:00,
2013-12-02 13:35:00,44.2,40.9,29.88,West,267,0.0,2.0,88,0.00,,,0.00,Wunderground v.1.15,2013-12-02 18:35:00,
2013-12-02 13:40:00,44.3,41.0,29.88,West,267,0.0,0.0,88,0.00,,,0.00,Wunderground v.1.15,2013-12-02 18:40:00,
2013-12-02 13:45:00,44.3,40.7,29.88,West,267,0.0,2.0,87,0.00,,,0.00,Wunderground v.1.15,2013-12-02 18:45:00,
2013-12-02 13:50:00,44.3,40.7,29.88,West,267,0.0,0.0,87,0.00,,,0.00,Wunderground v.1.15,2013-12-02 18:50:00,
2013-12-02 13:55:00,44.4,40.8,29.88,West,267,0.0,0.0,87,0.00,,,0.00,Wunderground v.1.15,2013-12-02 18:55:00,
2013-12-02 14:00:00,44.4,40.8,29.88,West,267,0.0,0.0,87,0.00,,,0.00,Wunderground v.1.15,2013-12-02 19:00:00,
2013-12-02 14:05:00,44.5,41.2,29.89,West,267,0.0,1.0,88,0.00,,,0.00,Wunderground v.1.15,2013-12-02 19:05:00,
2013-12-02 14:10:00,44.5,40.9,29.89,West,267,0.0,2.0,87,0.00,,,0.00,Wunderground v.1.15,2013-12-02 19:10:00,
2013-12-02 14:15:00,44.6,41.0,29.89,West,267,0.0,0.0,87,0.00,,,0.00,Wunderground v.1.15,2013-12-02 19:15:00,
2013-12-02 14:19:00,44.7,41.4,29.88,West,267,0.0,1.0,88,0.00,,,0.00,Wunderground v.1.15,2013-12-02 19:19:00,
2013-12-02 14:25:00,44.8,41.5,29.88,West,267,0.0,1.0,88,0.00,,,0.00,Wunderground v.1.15,2013-12-02 19:25:00,
2013-12-02 14:29:00,44.9,41.9,29.88,West,267,2.0,2.0,89,0.00,,,0.00,Wunderground v.1.15,2013-12-02 19:29:00,
2013-12-02 14:34:00,45.0,42.0,29.88,West,267,0.0,2.0,89,0.00,,,0.00,Wunderground v.1.15,2013-12-02 19:34:00,
2013-12-02 14:39:00,45.0,42.0,29.88,West,267,0.0,2.0,89,0.00,,,0.00,Wunderground v.1.15,2013-12-02 19:39:00,
2013-12-02 14:44:00,45.0,42.0,29.87,West,267,0.0,0.0,89,0.00,,,0.00,Wunderground v.1.15,2013-12-02 19:44:00,
2013-12-02 14:49:00,45.0,42.0,29.87,West,267,0.0,0.0,89,0.00,,,0.00,Wunderground v.1.15,2013-12-02 19:49:00,
2013-12-02 14:54:00,45.0,42.0,29.87,West,267,0.0,0.0,89,0.00,,,0.00,Wunderground v.1.15,2013-12-02 19:54:00,
2013-12-02 14:59:00,45.0,42.0,29.87,West,267,0.0,0.0,89,0.00,,,0.00,Wunderground v.1.15,2013-12-02 19:59:00,
2013-12-02 15:04:00,45.1,42.1,29.87,West,267,0.0,0.0,89,0.00,,,0.00,Wunderground v.1.15,2013-12-02 20:04:00,
2013-12-02 15:09:00,45.1,42.1,29.87,West,267,0.0,0.0,89,0.00,,,0.00,Wunderground v.1.15,2013-12-02 20:09:00,
2013-12-02 15:14:00,45.1,42.1,29.87,West,267,0.0,0.0,89,0.00,,,0.00,Wunderground v.1.15,2013-12-02 20:14:00,
2013-12-02 15:19:00,45.2,42.2,29.86,West,267,0.0,0.0,89,0.00,,,0.00,Wunderground v.1.15,2013-12-02 20:19:00,
2013-12-02 15:25:00,45.2,42.2,29.86,West,267,0.0,0.0,89,0.00,,,0.00,Wunderground v.1.15,2013-12-02 20:25:00,
2013-12-02 15:29:00,45.3,42.2,29.87,West,267,0.0,0.0,89,0.00,,,0.00,Wunderground v.1.15,2013-12-02 20:29:00,
2013-12-02 15:34:00,45.4,42.3,29.87,West,267,0.0,0.0,89,0.00,,,0.00,Wunderground v.1.15,2013-12-02 20:34:00,
2013-12-02 15:39:00,45.4,42.6,29.87,West,267,0.0,0.0,90,0.00,,,0.00,Wunderground v.1.15,2013-12-02 20:39:00,
2013-12-02 15:44:00,45.5,42.7,29.86,West,267,0.0,1.0,90,0.00,,,0.00,Wunderground v.1.15,2013-12-02 20:44:00,
2013-12-02 15:49:00,45.6,42.8,29.86,West,267,0.0,1.0,90,0.00,,,0.00,Wunderground v.1.15,2013-12-02 20:49:00,
2013-12-02 15:54:00,45.6,42.5,29.87,West,267,1.0,2.0,89,0.00,,,0.00,Wunderground v.1.15,2013-12-02 20:54:00,
2013-12-02 15:59:00,45.5,42.4,29.87,West,267,0.0,2.0,89,0.00,,,0.00,Wunderground v.1.15,2013-12-02 20:59:00,
2013-12-02 16:04:00,45.5,42.4,29.87,West,267,0.0,1.0,89,0.00,,,0.00,Wunderground v.1.15,2013-12-02 21:04:00,
2013-12-02 16:09:00,45.5,42.2,29.87,West,267,0.0,2.0,88,0.00,,,0.00,Wunderground v.1.15,2013-12-02 21:09:00,
2013-12-02 16:14:00,45.5,42.2,29.86,West,267,0.0,1.0,88,0.00,,,0.00,Wunderground v.1.15,2013-12-02 21:14:00,
2013-12-02 16:19:00,45.5,42.2,29.87,West,267,0.0,2.0,88,0.00,,,0.00,Wunderground v.1.15,2013-12-02 21:19:00,
2013-12-02 16:24:00,45.4,41.8,29.87,West,267,0.0,1.0,87,0.00,,,0.00,Wunderground v.1.15,2013-12-02 21:24:00,
2013-12-02 16:29:00,45.4,41.8,29.87,West,267,0.0,1.0,87,0.00,,,0.00,Wunderground v.1.15,2013-12-02 21:29:00,
2013-12-02 16:34:00,45.2,41.6,29.87,West,267,0.0,1.0,87,0.00,,,0.00,Wunderground v.1.15,2013-12-02 21:34:00,
2013-12-02 16:39:00,45.1,41.2,29.87,West,267,0.0,1.0,86,0.00,,,0.00,Wunderground v.1.15,2013-12-02 21:39:00,
2013-12-02 16:44:00,45.1,41.2,29.86,West,267,0.0,2.0,86,0.00,,,0.00,Wunderground v.1.15,2013-12-02 21:44:00,
2013-12-02 16:49:00,45.0,40.8,29.86,West,267,3.0,3.0,85,0.00,,,0.00,Wunderground v.1.15,2013-12-02 21:49:00,
2013-12-02 16:54:00,45.0,40.5,29.86,West,267,0.0,3.0,84,0.00,,,0.00,Wunderground v.1.15,2013-12-02 21:54:00,
2013-12-02 16:59:00,45.0,40.5,29.86,West,267,0.0,3.0,84,0.00,,,0.00,Wunderground v.1.15,2013-12-02 21:59:00,
2013-12-02 17:04:00,45.0,40.5,29.86,West,267,0.0,1.0,84,0.00,,,0.00,Wunderground v.1.15,2013-12-02 22:04:00,
2013-12-02 17:09:00,45.0,40.5,29.86,West,267,0.0,1.0,84,0.00,,,0.00,Wunderground v.1.15,2013-12-02 22:09:00,
2013-12-02 17:14:00,45.0,40.5,29.86,West,267,0.0,1.0,84,0.00,,,0.00,Wunderground v.1.15,2013-12-02 22:14:00,
2013-12-02 17:19:00,44.9,40.7,29.86,West,267,1.0,2.0,85,0.00,,,0.00,Wunderground v.1.15,2013-12-02 22:19:00,
2013-12-02 17:24:00,44.9,40.7,29.86,West,267,2.0,3.0,85,0.00,,,0.00,Wunderground v.1.15,2013-12-02 22:24:00,
2013-12-02 17:29:00,44.7,40.5,29.86,West,267,1.0,3.0,85,0.00,,,0.00,Wunderground v.1.15,2013-12-02 22:29:00,
2013-12-02 17:35:00,44.5,40.3,29.86,West,267,2.0,3.0,85,0.00,,,0.00,Wunderground v.1.15,2013-12-02 22:35:00,
2013-12-02 17:40:00,44.4,40.2,29.86,West,267,1.0,3.0,85,0.00,,,0.00,Wunderground v.1.15,2013-12-02 22:40:00,
2013-12-02 17:44:00,44.3,40.1,29.86,West,267,0.0,2.0,85,0.00,,,0.00,Wunderground v.1.15,2013-12-02 22:44:00,
2013-12-02 17:49:00,44.2,40.0,29.86,West,267,0.0,3.0,85,0.00,,,0.00,Wunderground v.1.15,2013-12-02 22:49:00,
2013-12-02 17:55:00,44.2,40.0,29.86,West,267,1.0,4.0,85,0.00,,,0.00,Wunderground v.1.15,2013-12-02 22:55:00,
2013-12-02 17:59:00,44.3,40.1,29.87,West,267,0.0,4.0,85,0.00,,,0.00,Wunderground v.1.15,2013-12-02 22:59:00,
2013-12-02 18:04:00,44.3,40.1,29.86,West,267,0.0,2.0,85,0.00,,,0.00,Wunderground v.1.15,2013-12-02 23:04:00,
2013-12-02 18:09:00,44.3,40.1,29.86,West,267,1.0,4.0,85,0.00,,,0.00,Wunderground v.1.15,2013-12-02 23:09:00,
2013-12-02 18:14:00,44.3,40.1,29.86,West,267,0.0,2.0,85,0.00,,,0.00,Wunderground v.1.15,2013-12-02 23:14:00,
2013-12-02 18:19:00,44.3,40.1,29.86,West,267,0.0,3.0,85,0.00,,,0.00,Wunderground v.1.15,2013-12-02 23:19:00,
2013-12-02 18:24:00,44.3,40.1,29.86,West,267,0.0,2.0,85,0.00,,,0.00,Wunderground v.1.15,2013-12-02 23:24:00,
2013-12-02 18:29:00,44.3,40.4,29.86,West,267,1.0,2.0,86,0.00,,,0.00,Wunderground v.1.15,2013-12-02 23:29:00,
2013-12-02 18:34:00,44.2,40.3,29.86,West,267,2.0,2.0,86,0.00,,,0.00,Wunderground v.1.15,2013-12-02 23:34:00,
2013-12-02 18:39:00,44.1,40.2,29.86,West,267,1.0,3.0,86,0.00,,,0.00,Wunderground v.1.15,2013-12-02 23:39:00,
2013-12-02 18:44:00,44.0,40.1,29.86,West,267,1.0,3.0,86,0.00,,,0.00,Wunderground v.1.15,2013-12-02 23:44:00,
2013-12-02 18:50:00,43.9,40.0,29.86,West,267,1.0,3.0,86,0.00,,,0.00,Wunderground v.1.15,2013-12-02 23:50:00,
2013-12-02 18:54:00,43.9,40.0,29.86,West,267,0.0,2.0,86,0.00,,,0.00,Wunderground v.1.15,2013-12-02 23:54:00,
2013-12-02 18:59:00,43.8,40.2,29.86,West,267,0.0,2.0,87,0.00,,,0.00,Wunderground v.1.15,2013-12-02 23:59:00,
2013-12-02 19:04:00,43.8,40.2,29.86,West,267,0.0,2.0,87,0.00,,,0.00,Wunderground v.1.15,2013-12-03 00:04:00,
2013-12-02 19:09:00,43.7,40.1,29.86,West,267,0.0,2.0,87,0.00,,,0.00,Wunderground v.1.15,2013-12-03 00:09:00,
2013-12-02 19:14:00,43.7,40.1,29.86,West,267,2.0,2.0,87,0.00,,,0.00,Wunderground v.1.15,2013-12-03 00:14:00,
2013-12-02 19:19:00,43.6,40.3,29.86,West,267,0.0,2.0,88,0.00,,,0.00,Wunderground v.1.15,2013-12-03 00:19:00,
2013-12-02 19:24:00,43.5,40.2,29.86,West,267,0.0,2.0,88,0.00,,,0.00,Wunderground v.1.15,2013-12-03 00:24:00,
2013-12-02 19:29:00,43.5,40.2,29.87,West,267,0.0,2.0,88,0.00,,,0.00,Wunderground v.1.15,2013-12-03 00:29:00,
2013-12-02 19:34:00,43.5,40.2,29.87,West,267,0.0,1.0,88,0.00,,,0.00,Wunderground v.1.15,2013-12-03 00:34:00,
2013-12-02 19:39:00,43.5,40.2,29.87,West,267,0.0,1.0,88,0.00,,,0.00,Wunderground v.1.15,2013-12-03 00:39:00,
2013-12-02 19:44:00,43.5,40.2,29.87,West,267,0.0,0.0,88,0.00,,,0.00,Wunderground v.1.15,2013-12-03 00:44:00,
2013-12-02 19:49:00,43.5,40.2,29.86,West,267,0.0,0.0,88,0.00,,,0.00,Wunderground v.1.15,2013-12-03 00:49:00,
2013-12-02 19:54:00,43.4,40.1,29.86,West,267,0.0,0.0,88,0.00,,,0.00,Wunderground v.1.15,2013-12-03 00:54:00,
2013-12-02 19:59:00,43.4,40.1,29.86,West,267,0.0,1.0,88,0.00,,,0.00,Wunderground v.1.15,2013-12-03 00:59:00,
2013-12-02 20:04:00,43.4,40.1,29.86,West,267,0.0,0.0,88,0.00,,,0.00,Wunderground v.1.15,2013-12-03 01:04:00,
2013-12-02 20:09:00,43.4,40.1,29.86,West,267,0.0,0.0,88,0.00,,,0.00,Wunderground v.1.15,2013-12-03 01:09:00,
2013-12-02 20:14:00,43.4,40.4,29.86,West,267,0.0,1.0,89,0.00,,,0.00,Wunderground v.1.15,2013-12-03 01:14:00,
2013-12-02 20:19:00,43.4,40.4,29.86,West,267,0.0,1.0,89,0.00,,,0.00,Wunderground v.1.15,2013-12-03 01:19:00,
2013-12-02 20:24:00,43.3,40.3,29.86,West,267,0.0,0.0,89,0.00,,,0.00,Wunderground v.1.15,2013-12-03 01:24:00,
2013-12-02 20:29:00,43.3,40.3,29.86,West,267,0.0,0.0,89,0.00,,,0.00,Wunderground v.1.15,2013-12-03 01:29:00,
2013-12-02 20:34:00,43.3,40.3,29.86,West,267,0.0,0.0,89,0.00,,,0.00,Wunderground v.1.15,2013-12-03 01:34:00,
2013-12-02 20:39:00,43.3,40.3,29.86,West,267,0.0,0.0,89,0.00,,,0.00,Wunderground v.1.15,2013-12-03 01:39:00,
2013-12-02 20:44:00,43.3,40.3,29.86,West,267,0.0,0.0,89,0.00,,,0.00,Wunderground v.1.15,2013-12-03 01:44:00,
2013-12-02 20:49:00,43.3,40.3,29.86,West,267,0.0,0.0,89,0.00,,,0.00,Wunderground v.1.15,2013-12-03 01:49:00,
2013-12-02 20:54:00,43.3,40.3,29.86,West,267,0.0,0.0,89,0.00,,,0.00,Wunderground v.1.15,2013-12-03 01:54:00,
2013-12-02 20:59:00,43.3,40.3,29.86,West,267,0.0,1.0,89,0.00,,,0.00,Wunderground v.1.15,2013-12-03 01:59:00,
2013-12-02 21:04:00,43.3,40.3,29.86,West,267,0.0,1.0,89,0.00,,,0.00,Wunderground v.1.15,2013-12-03 02:04:00,
2013-12-02 21:09:00,43.3,40.3,29.86,West,267,0.0,1.0,89,0.00,,,0.00,Wunderground v.1.15,2013-12-03 02:09:00,
2013-12-02 21:14:00,43.3,40.3,29.86,West,267,0.0,1.0,89,0.00,,,0.00,Wunderground v.1.15,2013-12-03 02:14:00,
2013-12-02 21:19:00,43.3,40.3,29.86,West,267,0.0,1.0,89,0.00,,,0.00,Wunderground v.1.15,2013-12-03 02:19:00,
2013-12-02 21:24:00,43.3,40.3,29.87,West,267,0.0,1.0,89,0.00,,,0.00,Wunderground v.1.15,2013-12-03 02:24:00,
2013-12-02 21:29:00,43.3,40.3,29.87,West,267,0.0,1.0,89,0.00,,,0.00,Wunderground v.1.15,2013-12-03 02:29:00,
2013-12-02 21:34:00,43.3,40.3,29.87,West,267,0.0,0.0,89,0.00,,,0.00,Wunderground v.1.15,2013-12-03 02:34:00,
2013-12-02 21:39:00,43.3,40.3,29.87,West,267,0.0,0.0,89,0.00,,,0.00,Wunderground v.1.15,2013-12-03 02:39:00,
2013-12-02 21:44:00,43.4,40.4,29.87,West,267,0.0,1.0,89,0.00,,,0.00,Wunderground v.1.15,2013-12-03 02:44:00,
2013-12-02 21:49:00,43.5,40.5,29.87,West,267,0.0,1.0,89,0.00,,,0.00,Wunderground v.1.15,2013-12-03 02:49:00,
2013-12-02 21:54:00,43.6,40.6,29.87,West,267,0.0,1.0,89,0.00,,,0.00,Wunderground v.1.15,2013-12-03 02:54:00,
2013-12-02 21:59:00,43.6,40.6,29.86,West,267,0.0,1.0,89,0.00,,,0.00,Wunderground v.1.15,2013-12-03 02:59:00,
2013-12-02 22:04:00,43.7,40.7,29.87,West,267,0.0,0.0,89,0.00,,,0.00,Wunderground v.1.15,2013-12-03 03:04:00,
2013-12-02 22:09:00,43.7,40.7,29.86,West,267,0.0,0.0,89,0.00,,,0.00,Wunderground v.1.15,2013-12-03 03:09:00,
2013-12-02 22:14:00,43.7,40.7,29.87,West,267,0.0,0.0,89,0.00,,,0.00,Wunderground v.1.15,2013-12-03 03:14:00,
2013-12-02 22:19:00,43.7,40.7,29.86,West,267,0.0,0.0,89,0.00,,,0.00,Wunderground v.1.15,2013-12-03 03:19:00,
2013-12-02 22:24:00,43.7,40.7,29.86,West,267,0.0,0.0,89,0.00,,,0.00,Wunderground v.1.15,2013-12-03 03:24:00,
2013-12-02 22:29:00,43.6,40.9,29.86,West,267,0.0,0.0,90,0.00,,,0.00,Wunderground v.1.15,2013-12-03 03:29:00,
2013-12-02 22:34:00,43.6,40.9,29.87,West,267,0.0,0.0,90,0.00,,,0.00,Wunderground v.1.15,2013-12-03 03:34:00,
2013-12-02 22:39:00,43.5,40.8,29.87,West,267,0.0,0.0,90,0.00,,,0.00,Wunderground v.1.15,2013-12-03 03:39:00,
2013-12-02 22:44:00,43.4,40.7,29.86,West,267,0.0,0.0,90,0.00,,,0.00,Wunderground v.1.15,2013-12-03 03:44:00,
2013-12-02 22:49:00,43.3,40.6,29.87,West,267,0.0,0.0,90,0.00,,,0.00,Wunderground v.1.15,2013-12-03 03:49:00,
2013-12-02 22:54:00,43.3,40.6,29.87,West,267,0.0,0.0,90,0.00,,,0.00,Wunderground v.1.15,2013-12-03 03:54:00,
2013-12-02 22:59:00,43.3,40.6,29.87,West,267,0.0,0.0,90,0.00,,,0.00,Wunderground v.1.15,2013-12-03 03:59:00,
2013-12-02 23:04:00,43.2,40.5,29.87,West,267,0.0,0.0,90,0.00,,,0.00,Wunderground v.1.15,2013-12-03 04:04:00,
2013-12-02 23:09:00,43.2,40.5,29.87,West,267,0.0,0.0,90,0.00,,,0.00,Wunderground v.1.15,2013-12-03 04:09:00,
2013-12-02 23:14:00,43.1,40.7,29.87,West,267,0.0,0.0,91,0.00,,,0.00,Wunderground v.1.15,2013-12-03 04:14:00,
2013-12-02 23:19:00,43.1,40.7,29.87,West,267,0.0,0.0,91,0.00,,,0.00,Wunderground v.1.15,2013-12-03 04:19:00,
2013-12-02 23:24:00,43.0,40.6,29.87,West,267,0.0,0.0,91,0.00,,,0.00,Wunderground v.1.15,2013-12-03 04:24:00,
2013-12-02 23:29:00,43.0,40.6,29.87,West,267,0.0,0.0,91,0.00,,,0.00,Wunderground v.1.15,2013-12-03 04:29:00,
2013-12-02 23:34:00,42.9,40.5,29.87,West,267,0.0,0.0,91,0.00,,,0.00,Wunderground v.1.15,2013-12-03 04:34:00,
2013-12-02 23:39:00,42.9,40.5,29.87,West,267,0.0,0.0,91,0.00,,,0.00,Wunderground v.1.15,2013-12-03 04:39:00,
2013-12-02 23:44:00,42.8,40.4,29.87,West,267,0.0,0.0,91,0.00,,,0.00,Wunderground v.1.15,2013-12-03 04:44:00,
2013-12-02 23:49:00,42.7,40.3,29.87,West,267,0.0,0.0,91,0.00,,,0.00,Wunderground v.1.15,2013-12-03 04:49:00,
2013-12-02 23:54:00,42.6,40.2,29.86,West,267,0.0,0.0,91,0.00,,,0.00,Wunderground v.1.15,2013-12-03 04:54:00,
2013-12-02 23:59:00,42.6,40.2,29.86,West,267,0.0,0.0,91,0.00,,,0.00,Wunderground v.1.15,2013-12-03 04:59:00,